TimeEST,TemperatureF,Dew PointF,Humidity,Sea Level PressureIn,VisibilityMPH,Wind Direction,Wind SpeedMPH,Gust SpeedMPH,PrecipitationIn,Events,Conditions,WindDirDegrees,DateUTC
12:12 AM,55.4,51.8,88,30.19,10.0,NNW,15.0,-,0.00,Rain,Light Rain,340,2012-03-09 05:12:00
12:34 AM,53.6,51.8,94,30.19,10.0,North,11.5,-,0.00,Rain,Light Rain,360,2012-03-09 05:34:00
12:54 AM,53.1,50.0,89,30.14,8.0,North,6.9,-,0.02,Rain,Rain,360,2012-03-09 05:54:00
1:54 AM,52.0,50.0,93,30.11,4.0,North,4.6,-,0.09,Rain,Heavy Rain,350,2012-03-09 06:54:00
2:49 AM,51.8,50.0,94,30.13,10.0,Calm,Calm,-,0.05,Rain,Light Rain,0,2012-03-09 07:49:00
2:54 AM,51.1,50.0,96,30.09,10.0,NNW,3.5,-,0.05,Rain,Light Rain,330,2012-03-09 07:54:00
3:16 AM,51.8,50.0,94,30.13,10.0,NNW,5.8,-,0.00,Rain,Light Rain,340,2012-03-09 08:16:00
3:25 AM,51.8,50.0,94,30.13,10.0,NNW,12.7,-,0.00,,Overcast,330,2012-03-09 08:25:00
3:38 AM,51.8,50.0,94,30.14,10.0,NNW,10.4,-,N/A,,Overcast,340,2012-03-09 08:38:00
3:54 AM,52.0,50.0,93,30.11,10.0,NNW,6.9,-,0.00,,Overcast,330,2012-03-09 08:54:00
4:30 AM,51.8,50.0,94,30.14,10.0,North,4.6,-,N/A,,Overcast,350,2012-03-09 09:30:00
4:54 AM,52.0,50.0,93,30.11,10.0,NNW,10.4,-,N/A,,Overcast,330,2012-03-09 09:54:00
5:19 AM,51.8,50.0,94,30.15,10.0,North,9.2,-,N/A,,Mostly Cloudy,350,2012-03-09 10:19:00
5:26 AM,51.8,50.0,94,30.15,10.0,North,11.5,-,N/A,,Overcast,350,2012-03-09 10:26:00
5:54 AM,52.0,48.0,86,30.13,10.0,North,10.4,18.4,N/A,,Overcast,350,2012-03-09 10:54:00
6:13 AM,51.8,46.4,82,30.17,10.0,NNW,13.8,19.6,N/A,,Overcast,340,2012-03-09 11:13:00
6:54 AM,48.9,45.0,86,30.17,10.0,North,13.8,24.2,N/A,,Mostly Cloudy,350,2012-03-09 11:54:00
7:41 AM,48.2,42.8,82,30.23,10.0,North,11.5,17.3,N/A,,Overcast,360,2012-03-09 12:41:00
7:54 AM,48.9,42.1,77,30.22,10.0,NNE,5.8,-,N/A,,Overcast,20,2012-03-09 12:54:00
8:54 AM,46.9,39.0,74,30.24,10.0,North,12.7,18.4,N/A,,Mostly Cloudy,350,2012-03-09 13:54:00
9:04 AM,46.4,39.2,76,30.26,10.0,North,10.4,-,N/A,,Partly Cloudy,360,2012-03-09 14:04:00
9:54 AM,46.0,35.1,66,30.26,10.0,North,12.7,27.6,N/A,,Clear,360,2012-03-09 14:54:00
10:54 AM,46.0,35.1,66,30.27,10.0,North,18.4,26.5,N/A,,Clear,360,2012-03-09 15:54:00
11:54 AM,48.0,32.0,54,30.27,10.0,NNW,23.0,34.5,N/A,,Clear,340,2012-03-09 16:54:00
12:54 PM,48.0,30.9,52,30.27,10.0,North,19.6,29.9,N/A,,Clear,360,2012-03-09 17:54:00
1:54 PM,50.0,26.1,39,30.24,10.0,North,17.3,24.2,N/A,,Clear,360,2012-03-09 18:54:00
2:54 PM,51.1,26.1,38,30.23,10.0,North,16.1,28.8,N/A,,Clear,350,2012-03-09 19:54:00
3:54 PM,50.0,24.1,36,30.24,10.0,North,17.3,32.2,N/A,,Clear,360,2012-03-09 20:54:00
4:54 PM,51.1,21.9,32,30.23,10.0,North,15.0,23.0,N/A,,Clear,360,2012-03-09 21:54:00
5:54 PM,50.0,23.0,35,30.25,10.0,North,17.3,24.2,N/A,,Clear,350,2012-03-09 22:54:00
6:54 PM,48.0,21.9,36,30.28,10.0,North,11.5,20.7,N/A,,Clear,360,2012-03-09 23:54:00
7:54 PM,45.0,23.0,42,30.31,10.0,North,4.6,-,N/A,,Clear,350,2012-03-10 00:54:00
8:54 PM,45.0,23.0,42,30.32,10.0,North,4.6,-,N/A,,Clear,10,2012-03-10 01:54:00
9:54 PM,43.0,25.0,49,30.32,10.0,North,3.5,-,N/A,,Clear,10,2012-03-10 02:54:00
10:54 PM,42.1,25.0,51,30.34,10.0,Calm,Calm,-,N/A,,Clear,0,2012-03-10 03:54:00
11:54 PM,42.1,25.0,51,30.34,10.0,North,9.2,-,N/A,,Clear,350,2012-03-10 04:54:00